This demonstration page uses our WeatherBlox Daily Observations layout. Learn more.

Left ArrowRight Arrow

38.20091, -84.87328

Hourly Observations for September 30, 2016

Temp ( °F °C ) Dew Point ( °F °C ) Humidity (%) Winds ( mph kmh ) Pressure ( in mb ) Visibility ( mi km ) Precip ( " mm )
12:03 am 00:03 Cloudy with Heavy Rain 56 13.3 53 11.7 90 90 Calm 30.09 1019 2 3 0.06 1.52
12:09 am 00:09 Cloudy with Heavy Rain 56 13.3 53 11.7 90 90 SW 3 6 30.09 1019 2 3 0.09 2.29
12:21 am 00:21 Cloudy with Light Rain 56 13.3 53 11.7 90 90 SSW 5 7 30.06 1018 4 6 0.10 2.54
12:44 am 00:44 Cloudy with Heavy Rain 56 13.3 53 11.7 90 90 WSW 5 7 30.06 1018 2 3 0.16 4.06
12:49 am 00:49 Cloudy with Light Rain 55 13 54 12 94 94 SW 3 6 30.06 1018 2 3 0.16 4.06
1:07 am 01:07 Cloudy with Light Rain 56 13.3 53 11.7 90 90 SW 5 7 30.06 1018 3 5 0.02 0.51
1:28 am 01:28 Cloudy with Mist and Fog 56 13.3 53 11.7 90 90 WSW 5 7 30.03 1017 6 10 0.02 0.51
1:39 am 01:39 Cloudy 56 13.3 53 11.7 90 90 WNW 5 7 30.03 1017 7 11 0.02 0.51
1:53 am 01:53 Cloudy 56 13.3 53 11.7 90 90 Calm 30.03 1017 8 13 0.02 0.51
2:33 am 02:33 Cloudy 56 13.3 53 11.7 90 90 NNW 3 6 30.03 1017 8 13 0.00 0.00
2:45 am 02:45 Cloudy 56 13.3 53 11.7 90 90 Calm 30.03 1017 7 11 0.00 0.00
2:53 am 02:53 Cloudy 56 13.3 53 11.7 90 90 Calm 30.02 1017 7 11 0.00 0.00
3:19 am 03:19 Cloudy with Mist and Fog 56 13.3 53 11.7 90 90 Calm 30.03 1017 6 10 0.00 0.00
3:33 am 03:33 Cloudy with Mist and Fog 56 13.3 53 11.7 90 90 Calm 30.03 1017 6 10 0.00 0.00
3:51 am 03:51 Cloudy with Mist and Fog 55 13 54 12 94 94 Calm 30.03 1017 5 8 0.00 0.00
3:53 am 03:53 Cloudy with Mist and Fog 56 13.3 53 11.7 90 90 Calm 30.01 1016 5 8 0.00 0.00
4:28 am 04:28 Cloudy with Mist and Fog 56 13.3 53 11.7 90 90 S 3 6 30.03 1017 5 8 0.00 0.00
4:53 am 04:53 Cloudy with Mist and Fog 56 13.3 53 11.7 90 90 SSW 3 6 30.02 1017 5 8 0.00 0.00
5:44 am 05:44 Mostly Clear with Mist and Fog 54 12.2 52 11.1 93 93 Calm 30.03 1017 2 3 0.00 0.03
5:50 am 05:50 Mostly Cloudy with Mist and Fog 54 12 52 11 94 94 Calm 30.00 1016 1 2 0.00 0.03
6:02 am 06:02 Mostly Cloudy with Fog 54 12.2 52 11.1 93 93 Calm 30.03 1017 1 1 0.01 0.25
6:53 am 06:53 Mostly Cloudy with Fog 55 12.8 52 11.1 90 90 Calm 30.01 1016 0 0 0.01 0.25
7:30 am 07:30 Cloudy with Mist and Fog 54 12.2 52 11.1 93 93 Calm 30.03 1017 1 2 0.00 0.00
7:34 am 07:34 Cloudy with Mist and Fog 54 12.2 52 11.1 93 93 Calm 30.03 1017 3 5 0.00 0.00
7:45 am 07:45 Cloudy with Mist and Fog 54 12.2 52 11.1 93 93 SW 6 9 30.03 1017 2 3 0.00 0.00
7:53 am 07:53 Cloudy with Mist and Fog 54 12.2 52 11.1 93 93 SW 5 7 30.02 1017 3 4 0.00 0.00
8:01 am 08:01 Cloudy with Mist and Fog 54 12.2 52 11.1 93 93 SSW 3 6 30.03 1017 4 6 0.00 0.00
8:20 am 08:20 Cloudy with Mist and Fog 55 12.8 52 11.1 90 90 SW 5 7 30.03 1017 5 8 0.00 0.00
8:53 am 08:53 Cloudy 55 12.8 52 11.1 90 90 Calm 30.02 1017 8 13 0.00 0.00
9:04 am 09:04 Cloudy with Mist and Fog 55 12.8 52 11.1 90 90 SSW 5 7 30.03 1017 6 10 0.00 0.00
9:53 am 09:53 Cloudy 57 13.9 53 11.7 87 87 Calm 30.03 1017 8 13 0.00 0.00
10:46 am 10:46 Cloudy 59 15 53 11.7 81 81 S 5 7 30.03 1017 10 16 0.00 0.00
10:53 am 10:53 Cloudy 59 15 52 11.1 78 78 SSW 5 7 30.04 1017 10 16 0.00 0.00
11:29 am 11:29 Mostly Cloudy 60 15.6 52 11.1 75 75 W 3 6 30.06 1018 10 16 0.00 0.00
11:41 am 11:41 Partly Cloudy 60 15.6 51 10.6 72 72 SW 3 6 30.06 1018 10 16 0.00 0.00
11:53 am 11:53 Mostly Cloudy 60 15.6 51 10.6 72 72 Calm 30.04 1017 10 16 0.00 0.00
12:53 pm 12:53 Sunny 62 16.7 53 11.7 73 73 SW 7 11 30.03 1017 10 16 0.00 0.00
1:53 pm 13:53 Mostly Cloudy 62 16.7 52 11.1 70 70 SSW 7 11 30.03 1017 10 16 0.00 0.00
2:50 pm 14:50 Mostly Cloudy 64 18 52 11 64 64 WSW 6 9 30.00 1016 10 16 0.00 0.00
2:53 pm 14:53 Mostly Cloudy 64 17.8 52 11.1 65 65 SW 8 13 30.00 1016 10 16 0.00 0.00
3:22 pm 15:22 Mostly Cloudy 64 17.8 50 10 60 60 VRB 6 9 30.00 1016 10 16 0.00 0.00
3:30 pm 15:30 Cloudy 64 17.8 50 10 60 60 VRB 3 6 30.00 1016 10 16 0.00 0.00
3:46 pm 15:46 Cloudy 64 17.8 50 10 60 60 WSW 6 9 30.00 1016 10 16 0.00 0.00
3:53 pm 15:53 Cloudy 64 17.8 50 10 60 60 S 7 11 29.99 1016 10 16 0.00 0.00
4:53 pm 16:53 Mostly Cloudy 64 17.8 46 7.8 52 52 VRB 6 9 29.99 1016 10 16 0.00 0.00
5:53 pm 17:53 Cloudy 63 17.2 48 8.9 58 58 SSW 6 9 30.00 1016 10 16 0.00 0.00
6:53 pm 18:53 Cloudy 62 16.7 50 10 65 65 SSE 6 9 30.01 1016 10 16 0.00 0.00
7:53 pm 19:53 Cloudy 59 15 52 11.1 78 78 WSW 3 6 30.01 1016 10 16 0.00 0.00
8:53 pm 20:53 Cloudy 58 14.4 52 11.1 81 81 Calm 30.01 1016 10 16 0.00 0.00
9:35 pm 21:35 Cloudy 58 14.4 53 11.7 84 84 Calm 30.03 1017 10 16 0.00 0.00
9:42 pm 21:42 Cloudy 58 14.4 53 11.7 84 84 Calm 30.03 1017 10 16 0.00 0.00
9:53 pm 21:53 Mostly Cloudy 57 13.9 52 11.1 83 83 ESE 3 6 30.01 1016 10 16 0.00 0.00
10:53 pm 22:53 Cloudy 57 13.9 52 11.1 83 83 SE 3 6 30.01 1016 10 16 0.00 0.00
11:49 pm 23:49 Cloudy with Light Rain 55 13 54 12 94 94 Calm 30.03 1017 2 3 0.11 2.79
11:53 pm 23:53 Cloudy with Light Rain 57 13.9 53 11.7 87 87 ESE 3 6 30.01 1016 4 6 0.11 2.79

Powered by AerisWeather